• In Belarus
  • List of Countries
  • For 7 days
  • Water Temperature
  • Satellite Maps
  • Weather Map
  • Weather Widgets
  • user-avatar
    Login

    Hourly Weather Einsiedeln

    Today, 24 February, Saturday

    Time Temperature Precipitation Wind Pressure Humidity
    00:00 -6°C° 0 mm 2 mps 667 mmHg 83%
    01:00 -6°C° 0 mm 2 mps 668 mmHg 81%
    02:00 -6°C° 0 mm 2 mps 667 mmHg 80%
    03:00 -6°C° 0 mm 2 mps 667 mmHg 80%
    04:00 -5°C° 0 mm 2 mps 667 mmHg 80%
    05:00 -5°C° 0 mm 2 mps 667 mmHg 81%
    06:00 -5°C° 0 mm 2 mps 667 mmHg 81%
    07:00 -5°C° 0 mm 2 mps 668 mmHg 82%
    08:00 -4°C° 0 mm 2 mps 668 mmHg 81%
    09:00 -2°C° 0 mm 2 mps 668 mmHg 81%
    10:00 -1°C° 0 mm 3 mps 668 mmHg 80%
    11:00 0°C° 0 mm 3 mps 668 mmHg 81%
    12:00 0°C° 0 mm 3 mps 669 mmHg 82%
    13:00 +1°C° 0 mm 3 mps 669 mmHg 82%
    14:00 +1°C° 0 mm 3 mps 669 mmHg 83%
    15:00 +1°C° 0 mm 3 mps 669 mmHg 83%
    16:00 0°C° 0 mm 3 mps 668 mmHg 83%
    17:00 -1°C° 0 mm 3 mps 668 mmHg 85%
    18:00 -2°C° 0 mm 3 mps 669 mmHg 86%
    19:00 -5°C° 0 mm 3 mps 669 mmHg 88%
    20:00 -5°C° 0 mm 3 mps 669 mmHg 88%
    21:00 -4°C° 0 mm 2 mps 669 mmHg 89%
    22:00 -5°C° 0 mm 2 mps 669 mmHg 89%
    23:00 -5°C° 0 mm 2 mps 669 mmHg 89%

    Tomorrow, 25 February, Sunday

    Time Temperature Precipitation Wind Pressure Humidity
    00:00 -5°C° 0 mm 2 mps 669 mmHg 90%
    01:00 -5°C° 0 mm 2 mps 670 mmHg 90%
    02:00 -6°C° 0 mm 2 mps 669 mmHg 90%
    03:00 -6°C° 0 mm 2 mps 669 mmHg 90%
    04:00 -6°C° 0 mm 2 mps 669 mmHg 89%
    05:00 -7°C° 0.1 mm 2 mps 669 mmHg 89%
    06:00 -8°C° 0.1 mm 3 mps 669 mmHg 89%
    07:00 -9°C° 0.1 mm 3 mps 669 mmHg 89%
    08:00 -8°C° 0.1 mm 3 mps 669 mmHg 87%
    09:00 -8°C° 0.1 mm 3 mps 669 mmHg 84%
    10:00 -8°C° 0.1 mm 3 mps 670 mmHg 82%
    11:00 -7°C° 0.1 mm 3 mps 670 mmHg 79%
    12:00 -8°C° 0.1 mm 4 mps 670 mmHg 77%
    13:00 -7°C° 0.1 mm 4 mps 670 mmHg 74%
    14:00 -8°C° 0.1 mm 4 mps 670 mmHg 73%
    15:00 -8°C° 0.1 mm 4 mps 669 mmHg 73%
    16:00 -9°C° 0.1 mm 4 mps 669 mmHg 72%
    17:00 -10°C° 0 mm 4 mps 670 mmHg 75%
    18:00 -10°C° 0 mm 3 mps 670 mmHg 78%
    19:00 -12°C° 0 mm 3 mps 670 mmHg 80%
    20:00 -13°C° 0 mm 3 mps 670 mmHg 81%
    21:00 -14°C° 0 mm 3 mps 670 mmHg 81%
    22:00 -14°C° 0 mm 3 mps 670 mmHg 81%
    23:00 -15°C° 0 mm 3 mps 670 mmHg 82%

    Day after tomorrow, 26 February, Monday

    Time Temperature Precipitation Wind Pressure Humidity
    00:00 -15°C° 0 mm 3 mps 670 mmHg 82%
    01:00 -15°C° 0 mm 3 mps 670 mmHg 83%
    02:00 -16°C° 0 mm 3 mps 670 mmHg 83%
    03:00 -16°C° 0 mm 3 mps 670 mmHg 83%
    04:00 -16°C° 0 mm 3 mps 670 mmHg 84%
    05:00 -17°C° 0 mm 3 mps 670 mmHg 84%
    06:00 -17°C° 0 mm 3 mps 670 mmHg 84%
    07:00 -17°C° 0 mm 3 mps 670 mmHg 84%
    08:00 -16°C° 0 mm 3 mps 670 mmHg 80%
    09:00 -17°C° 0 mm 4 mps 670 mmHg 77%
    10:00 -16°C° 0 mm 4 mps 670 mmHg 73%
    11:00 -15°C° 0 mm 4 mps 670 mmHg 71%
    12:00 -15°C° 0 mm 4 mps 670 mmHg 69%
    13:00 -14°C° 0 mm 4 mps 670 mmHg 66%
    14:00 -14°C° 0 mm 4 mps 669 mmHg 67%
    15:00 -14°C° 0 mm 4 mps 669 mmHg 68%
    16:00 -14°C° 0 mm 4 mps 669 mmHg 69%
    17:00 -15°C° 0 mm 4 mps 669 mmHg 72%
    18:00 -16°C° 0 mm 4 mps 669 mmHg 76%
    19:00 -16°C° 0 mm 3 mps 669 mmHg 79%
    20:00 -16°C° 0 mm 3 mps 669 mmHg 80%
    21:00 -16°C° 0 mm 3 mps 669 mmHg 81%
    22:00 -16°C° 0 mm 2 mps 669 mmHg 82%
    23:00 -16°C° 0 mm 2 mps 669 mmHg 82%

    27 February, Tuesday

    Time Temperature Precipitation Wind Pressure Humidity
    00:00 -17°C° 0 mm 2 mps 669 mmHg 83%
    01:00 -17°C° 0 mm 2 mps 668 mmHg 83%
    02:00 -17°C° 0 mm 2 mps 668 mmHg 83%
    03:00 -17°C° 0 mm 2 mps 668 mmHg 83%
    04:00 -17°C° 0 mm 2 mps 668 mmHg 83%
    05:00 -18°C° 0 mm 2 mps 667 mmHg 84%
    06:00 -18°C° 0 mm 2 mps 667 mmHg 84%
    07:00 -18°C° 0 mm 2 mps 667 mmHg 84%
    08:00 -16°C° 0 mm 2 mps 667 mmHg 80%
    09:00 -15°C° 0 mm 2 mps 667 mmHg 75%
    10:00 -14°C° 0 mm 2 mps 668 mmHg 70%
    11:00 -13°C° 0 mm 2 mps 667 mmHg 67%
    12:00 -12°C° 0 mm 2 mps 667 mmHg 64%
    13:00 -10°C° 0 mm 2 mps 667 mmHg 60%
    14:00 -12°C° 0 mm 3 mps 667 mmHg 62%
    15:00 -12°C° 0 mm 3 mps 667 mmHg 64%
    16:00 -12°C° 0 mm 3 mps 667 mmHg 66%
    17:00 -12°C° 0 mm 2 mps 667 mmHg 72%
    18:00 -14°C° 0 mm 2 mps 667 mmHg 78%
    19:00 -13°C° 0 mm 1 mps 667 mmHg 84%
    20:00 -15°C° 0 mm 2 mps 667 mmHg 83%
    21:00 -16°C° 0 mm 2 mps 667 mmHg 83%
    22:00 -16°C° 0 mm 2 mps 667 mmHg 82%
    23:00 -16°C° 0 mm 2 mps 667 mmHg 81%

    28 February, Wednesday

    Time Temperature Precipitation Wind Pressure Humidity
    00:00 -17°C° 0 mm 2 mps 667 mmHg 80%
    01:00 -17°C° 0 mm 2 mps 667 mmHg 79%
    02:00 -17°C° 0 mm 2 mps 667 mmHg 80%
    03:00 -17°C° 0 mm 2 mps 667 mmHg 80%
    04:00 -17°C° 0 mm 2 mps 667 mmHg 80%
    05:00 -17°C° 0 mm 2 mps 667 mmHg 81%
    06:00 -17°C° 0 mm 2 mps 667 mmHg 81%
    07:00 -15°C° 0 mm 1 mps 667 mmHg 81%
    08:00 -15°C° 0 mm 2 mps 668 mmHg 76%
    09:00 -13°C° 0 mm 2 mps 668 mmHg 70%
    10:00 -10°C° 0 mm 2 mps 669 mmHg 64%
    11:00 -8°C° 0 mm 2 mps 669 mmHg 61%
    12:00 -7°C° 0 mm 2 mps 669 mmHg 58%
    13:00 -5°C° 0 mm 2 mps 669 mmHg 55%
    14:00 -5°C° 0 mm 2 mps 668 mmHg 56%
    15:00 -6°C° 0 mm 3 mps 668 mmHg 57%
    16:00 -6°C° 0 mm 3 mps 668 mmHg 58%
    17:00 -7°C° 0 mm 3 mps 668 mmHg 64%
    18:00 -8°C° 0 mm 3 mps 668 mmHg 69%
    19:00 -9°C° 0 mm 3 mps 668 mmHg 75%
    20:00 -10°C° 0 mm 3 mps 668 mmHg 75%
    21:00 -10°C° 0 mm 3 mps 668 mmHg 75%
    22:00 -10°C° 0 mm 3 mps 668 mmHg 75%
    23:00 -9°C° 0 mm 3 mps 668 mmHg 75%

    1 March, Thursday

    Time Temperature Precipitation Wind Pressure Humidity
    00:00 -9°C° 0 mm 3 mps 667 mmHg 75%
    01:00 -9°C° 0 mm 3 mps 667 mmHg 75%
    02:00 -9°C° 0 mm 3 mps 667 mmHg 75%
    03:00 -9°C° 0 mm 3 mps 666 mmHg 75%
    04:00 -9°C° 0 mm 3 mps 665 mmHg 75%
    05:00 -8°C° 0 mm 3 mps 665 mmHg 75%
    06:00 -8°C° 0 mm 3 mps 664 mmHg 75%
    07:00 -8°C° 0 mm 3 mps 664 mmHg 75%
    08:00 -7°C° 0.1 mm 3 mps 664 mmHg 74%
    09:00 -6°C° 0.1 mm 3 mps 664 mmHg 73%
    10:00 -4°C° 0.1 mm 3 mps 664 mmHg 72%
    11:00 -4°C° 0.1 mm 3 mps 664 mmHg 72%
    12:00 -2°C° 0.1 mm 3 mps 663 mmHg 72%
    13:00 -1°C° 0.1 mm 3 mps 663 mmHg 72%
    14:00 0°C° 0 mm 3 mps 663 mmHg 73%
    15:00 0°C° 0 mm 3 mps 662 mmHg 74%
    16:00 0°C° 0 mm 3 mps 662 mmHg 75%
    17:00 0°C° 0 mm 3 mps 661 mmHg 78%
    18:00 -1°C° 0 mm 3 mps 661 mmHg 81%
    19:00 -2°C° 0 mm 3 mps 661 mmHg 84%
    20:00 -2°C° 0 mm 3 mps 661 mmHg 85%
    21:00 -2°C° 0 mm 3 mps 660 mmHg 85%
    22:00 -2°C° 0 mm 3 mps 660 mmHg 85%
    23:00 -2°C° 0 mm 3 mps 659 mmHg 85%
    Show more